Aérodrome :
LOGIN :

S'inscrire | Disclaimer

   EN    FR    IT 

 










Légende :    VFR   VFR Marginal   IFR   IFR Intensif   IFR Très Intensif
Visi : 
Plafond : 
>= 8 km
>= 3000ft
5 à 8 km
1000 à 3000 ft
1500m à 5 km
500 à 1000 ft
800 à 1500m
200 à 500 ft
< 800m
< 200 ft
Symboles :   Orages  Brouillard  Fortes neiges  Fortes précipitations  Vent > 20 kt
SIGMETs :   Divers  Orages  Givrage  Turbulence  Onde Orograph.  Cendres Volcan.







- Altitude de l'aérodrome : 1830 ft


EBLB - Butgenbach Elsenborn

DERNIER METAR :
  • 230255Z AUTO VRB01KT 9999 BKN190/// 07/07 Q1018 BLU

METARs EXPIRÉS :
  • 230225Z AUTO 00000KT 9999 FEW190/// 07/06 Q1018 BLU
  • 230155Z AUTO VRB01KT 9999 BKN190/// 08/07 Q1017 BLU
  • 230125Z AUTO VRB01KT 9999 BKN190/// 08/07 Q1017 BLU
  • 230055Z AUTO VRB01KT 9999 SCT190/// 09/07 Q1017 BLU
  • 230025Z AUTO VRB01KT 9999 FEW160/// BKN200/// 09/08 Q1017 BLU
  • 222355Z AUTO VRB01KT 9999 FEW140/// BKN190/// 10/08 Q1018 BLU

Prévision TAF périmée.
Pas de NOTAMs connus pour ce terrain.



MET'MAP, la Météo Aéronautique d'un coup d'oeil ! - Copyright ORBIFLY Décembre 2007 - Disclaimer

ORBIFLY MET'MAP TEAM :

Programmation & Développement : Alexandra Zaïnal
Conception & Développement : Baudouin d'Aumeries
Co-Programmation & Développement : Marc-Olivier Méhu
Soutien technique & logistique : Manuel Goepfert

Contact : metmap@orbifly.com




SOURCES & CREDITS :

   NOAA